Location: Nickerson Gardens
(33.9320°N, 118.2484°W)
Time: 16:20:31
(UTC+00:00)

NANOSAT C BR1 - Visible Passes

Search period start: 16 April 2021 00:00
Search period end: 26 April 2021 00:00
Orbit: 588 x 605 km, 97.9° (Epoch: 16 April)

Date Brightness Start Highest point End Pass type
(mag) Time Alt. Az. Time Alt. Az. Time Alt. Az.
22 Apr ? 09:33:58 10° N 09:34:01 10° N 09:34:01 10° N visible
23 Apr ? 09:44:09 10° N 09:44:18 11° N 09:44:18 11° N visible
24 Apr ? 09:54:25 10° N 09:54:35 11° NNW 09:54:35 11° NNW visible
25 Apr ? 10:04:45 10° NNW 10:04:52 11° NNW 10:04:52 11° NNW visible
